User: anonymous   Login
Location: Rounton
(54.4000°N, 1.3500°W)
Time: 06:22:46
(UTC+00:00)
Language:

FENGYUN 1C DEB - Orbit

View from above orbital plane
View from above orbital plane
View from above satellite
View from above satellite

Ground track
Ground track

The orbit data is extracted from the following two-line orbital elements,

1 31459U 99025BUX 22334.09528878  .00001893  00000-0  74401-3 0  9998
2 31459  98.1440 286.2761 0120887 213.4615 145.8888 14.26399830486634
Epoch (UTC): 30 November 2022 02:17:12
Eccentricity: 0.0120887
inclination: 98.1440°
perigee height: 717 km
apogee height: 890 km
right ascension of ascending node: 286.2761°
argument of perigee: 213.4615°
revolutions per day: 14.26399830
mean anomaly at epoch: 145.8888°
orbit number at epoch: 48663

The dashed part of the orbit path shows where the satellite is in the earth's shadow,  

DLR